#timestamp,LO_Frequency,Hit,StdDev 
1595387375.3,286047004.9,P
1595387395.1,286047007.0,P
1595387396.0,286047007.0,P
1595387445.9,286047007.0,E
1595387455.8,286047006.0,N
1595387475.6,286046999.7,P
1595387495.5,286047000.0,N
1595387515.3,286047002.0,N
1595387535.1,286047004.4,N
1595387555.9,286047004.0,N
1595387575.7,286047001.4,N
1595387595.6,286047001.8,N
1595387615.4,286047003.9,N
1595387635.2,286047005.7,N
1595387655.1,286047004.6,N
1595387656.0,286047004.6,N
1595387675.8,286047004.5,N
1595387695.6,286047005.5,N
1595387715.5,286047005.1,N
1595387735.3,286047005.7,N
1595387755.2,286047003.3,N
1595387775.9,286047005.6,N
1595387795.7,286047005.4,N
1595387815.6,286047005.0,N
1595387835.4,286047001.9,N
1595387855.2,286047002.1,N
1595387875.1,286047002.7,N
1595387876.0,286047002.7,N
1595387895.8,286047002.8,N
1595387915.7,286047000.2,N
1595387935.5,286046999.8,N
1595387955.3,286047002.0,N
1595387975.2,286047002.4,N
1595387995.0,286047003.9,N
1595387995.9,286047003.9,N
1595388015.8,286047004.2,N
1595388035.6,286047001.7,N
1595388055.4,286047004.2,N
1595388075.3,286047004.2,N
1595388095.1,286047004.0,N
1595388115.8,286047003.4,N
1595388135.7,286047003.3,N
1595388155.5,286047004.7,Y
1595388175.4,286047004.0,P
1595388195.2,286047001.5,P
1595388215.0,286047004.3,P
1595388215.9,286047004.3,Y
1595388235.8,286047002.0,P
1595388255.6,286046999.8,N
1595388275.5,286046999.8,N
1595388295.3,286047000.1,N
1595388315.1,286047000.6,N
1595388335.9,286047001.0,N
1595388355.7,286047000.9,N
1595388375.5,286047002.5,N
1595388395.4,286047002.0,N
1595388415.2,286047003.6,Y
1595388435.1,286047001.6,P
1595388436.0,286047001.6,P
1595388455.8,286047002.6,P
1595388475.6,286047001.5,N
1595388495.5,286047002.1,Y
1595388515.3,286046998.1,P
1595388535.1,286046999.7,N
1595388555.9,286047002.6,N
1595388575.7,286047004.0,N
1595388595.6,286047003.8,N
1595388615.4,286047001.7,N
1595388635.2,286047001.9,N
1595388655.1,286047000.2,N
1595388656.0,286047000.2,N
1595388675.8,286046998.3,N
1595388695.7,286047000.5,N
1595388715.5,286047001.0,N
1595388735.3,286047000.1,N
1595388755.2,286047002.0,N
1595388775.0,286047002.6,N
1595388775.9,286047002.6,N
1595388795.8,286047001.8,N
1595388815.6,286047006.0,Y
1595388835.4,286047005.3,P
1595388855.3,286047004.2,N
1595388875.1,286047001.3,N
1595388895.8,286047003.6,N
1595388915.7,286047003.9,N
1595388935.5,286047004.0,N
1595388955.4,286047003.7,N
1595388975.2,286047002.9,N
1595388995.0,286047004.1,Y
1595388995.9,286047004.1,P
1595389015.8,286046999.7,N
1595389035.6,286047004.0,N
1595389055.4,286047001.3,N
1595389075.3,286047001.3,N
1595389095.1,286047003.4,N
1595389115.9,286047005.2,Y
1595389135.7,286047000.6,P
1595389155.5,286046999.6,N
1595389175.4,286046999.5,N
1595389195.2,286046998.3,N
1595389215.1,286046998.2,N
1595389216.0,286046998.2,N
1595389235.8,286046999.7,N
1595389255.6,286047004.0,N
1595389275.5,286047004.0,N
1595389295.3,286047001.8,N
1595389315.2,286046999.9,N
1595389335.9,286047002.5,N
1595389355.7,286047004.4,N
1595389375.6,286047002.9,N
1595389395.4,286047003.8,N
1595389415.2,286047004.2,N
1595389435.1,286047002.0,N
1595389436.0,286047002.0,N
1595389455.8,286047000.5,N
1595389475.7,286046999.9,N
1595389495.5,286047002.6,N
1595389515.3,286047002.0,N
1595389535.2,286046999.8,N
1595389555.0,286047002.4,N
1595389555.9,286047002.4,N
1595389575.8,286047000.9,N
1595389595.6,286047002.5,N
1595389615.4,286047004.3,N
1595389635.3,286047003.2,N
1595389655.1,286047004.1,N
1595389675.8,286047002.0,N
1595389695.7,286047004.1,N
1595389715.5,286047003.5,N
1595389735.4,286047005.3,N
1595389755.2,286047004.8,N
1595389775.0,286047005.1,N
1595389775.9,286047005.1,Y
1595389795.8,286047001.6,P
1595389815.6,286047001.6,N
1595389835.4,286047001.0,N
1595389855.3,286046999.7,N
1595389875.1,286046999.8,N
1595389895.9,286047001.8,N
1595389915.7,286047004.2,Y
1595389935.5,286047001.5,P
1595389955.4,286047003.1,P
1595389975.2,286047003.5,P
1595389995.0,286047001.6,N
1595389995.9,286047001.6,N
1595390015.8,286047002.6,N
1595390035.6,286046999.7,N
1595390055.5,286047000.8,N
1595390075.3,286047001.2,N
1595390095.1,286046997.4,N
1595390115